CW1490 Weather Reports


Display with metric or nautical units.
time (UTC)temp
F
wind
direction
speed
MPH
gust
MPH
rain 1hr
in
rain 24hr
in
rain mn
in
humidity
%
barometer
mb
20170823095227 68 292 0.0 4.0 0.00 0.01 0.00 97 1004.8
20170823093729 68 31 0.0 0.0 0.00 0.01 0.00 97 1004.4
20170823092222 68 31 0.0 2.0 0.00 0.01 0.00 97 1004.3
20170823090724 68 31 0.0 1.0 0.00 0.01 0.00 97 1004.1
20170823085228 68 262 0.0 0.0 0.00 0.01 0.00 97 1004.2
20170823083722 68 260 1.0 3.0 0.00 0.01 0.00 97 1004.1
20170823082221 68 29 0.0 3.0 0.00 0.01 0.00 97 1003.8
20170823080724 68 354 0.0 0.0 0.00 0.01 0.00 97 1003.8
20170823075223 68 354 0.0 1.0 0.00 0.01 0.00 97 1003.6
20170823073722 69 238 0.0 1.0 0.00 0.01 0.00 97 1003.6
20170823072215 69 178 2.0 5.0 0.00 0.01 0.00 97 1003.7
20170823070732 69 197 0.0 6.0 0.00 0.01 0.00 97 1003.7
20170823065216 69 246 0.0 0.0 0.00 0.01 0.00 97 1003.8
20170823063718 69 258 0.0 0.0 0.00 0.01 0.00 97 1003.8
20170823062216 69 220 3.0 7.0 0.00 0.01 0.00 97 1003.8
20170823060718 69 224 1.0 2.0 0.00 0.01 0.00 97 1003.6
20170823055222 69 46 0.0 3.0 0.00 0.01 0.00 97 1003.7
20170823053707 69 4 1.0 3.0 0.00 0.01 0.00 97 1003.8
20170823052210 69 215 0.0 3.0 0.00 0.01 0.00 97 1003.8
20170823050705 70 216 2.0 4.0 0.00 0.01 0.00 97 1003.9
20170823045204 70 228 0.0 3.0 0.00 0.01 0.00 96 1004.0
20170823043722 70 218 2.0 3.0 0.00 0.01 0.00 96 1004.0
20170823042302 69 211 1.0 5.0 0.00 0.01 0.00 96 1004.3
20170823040702 70 222 2.0 4.0 0.00 0.01 0.00 96 1004.3
20170823035159 69 219 1.0 3.0 0.00 0.01 0.01 96 1004.2
20170823033701 69 215 1.0 3.0 0.00 0.01 0.01 96 1004.2
20170823032157 69 206 0.0 1.0 0.00 0.01 0.01 95 1004.0
20170823030657 70 206 1.0 4.0 0.00 0.01 0.01 95 1004.2
20170823025155 70 197 3.0 6.0 0.00 0.01 0.01 94 1004.0
20170823023655 70 240 3.0 9.0 0.00 0.01 0.01 94 1003.8
20170823022205 71 168 6.0 10.0 0.00 0.01 0.01 93 1003.9
20170823020657 71 97 1.0 9.0 0.00 0.01 0.01 91 1004.0
20170823015205 74 235 6.0 20.0 0.00 0.01 0.01 86 1004.2
20170823013657 80 164 5.0 13.0 0.00 0.01 0.01 85 1002.5
20170823012151 80 179 8.0 15.0 0.00 0.01 0.01 84 1003.1
20170823010649 80 235 5.0 12.0 0.00 0.01 0.01 83 1003.5
20170823005157 80 218 8.0 15.0 0.00 0.01 0.01 83 1003.3
20170823003647 81 182 6.0 14.0 0.00 0.01 0.01 82 1003.7
20170823002148 81 213 6.0 13.0 0.00 0.01 0.01 81 1003.9
20170823000646 80 193 4.0 10.0 0.00 0.01 0.01 79 1004.0
20170822235155 81 206 3.0 9.0 0.00 0.01 0.01 76 1003.9
20170822233642 81 207 4.0 9.0 0.00 0.01 0.01 75 1004.0
20170822232145 81 218 5.0 9.0 0.00 0.01 0.01 76 1003.9
20170822230642 81 174 4.0 7.0 0.00 0.01 0.01 75 1004.2
20170822225144 82 201 3.0 9.0 0.00 0.01 0.01 77 1004.3
20170822223641 82 180 4.0 9.0 0.00 0.01 0.01 76 1004.5
20170822222135 82 190 4.0 7.0 0.00 0.01 0.01 76 1004.6
20170822220635 83 189 4.0 7.0 0.00 0.01 0.01 76 1005.0
20170822215138 84 206 5.0 9.0 0.00 0.01 0.01 73 1005.0
20170822213636 84 186 5.0 9.0 0.00 0.01 0.01 72 1005.3
20170822212133 85 193 6.0 10.0 0.00 0.01 0.01 71 1005.5
20170822210730 86 199 7.0 16.0 0.00 0.01 0.01 69 1005.5
20170822205128 86 189 6.0 10.0 0.00 0.01 0.01 72 1005.7
20170822203648 87 206 7.0 16.0 0.00 0.01 0.01 70 1005.7
20170822202126 86 232 8.0 18.0 0.00 0.01 0.01 71 1005.9
20170822200629 86 141 6.0 11.0 0.00 0.01 0.01 75 1006.1
20170822195123 85 158 7.0 16.0 0.00 0.01 0.01 75 1006.4
20170822193630 85 203 6.0 16.0 0.00 0.01 0.01 76 1006.5
20170822192129 85 231 9.0 16.0 0.00 0.01 0.01 75 1006.8
20170822190626 86 217 8.0 14.0 0.00 0.01 0.01 74 1007.1
20170822185127 87 163 8.0 15.0 0.00 0.01 0.01 74 1007.6
20170822183606 87 150 8.0 15.0 0.00 0.01 0.01 73 1008.0
20170822182122 86 201 8.0 15.0 0.00 0.01 0.01 72 1008.5
20170822180604 86 156 6.0 14.0 0.00 0.01 0.01 75 1008.8
20170822175056 86 162 7.0 14.0 0.00 0.01 0.01 74 1009.2
20170822173555 86 185 8.0 15.0 0.00 0.01 0.01 74 1009.6
20170822172108 85 205 6.0 15.0 0.01 0.01 0.01 76 1009.8
20170822170554 84 216 6.0 12.0 0.01 0.01 0.01 78 1010.2
20170822165050 83 223 8.0 14.0 0.01 0.01 0.01 76 1010.5
20170822163549 82 223 8.0 15.0 0.01 0.01 0.01 77 1010.7
20170822162041 81 194 9.0 15.0 0.00 0.00 0.00 78 1010.9
20170822160542 82 192 7.0 15.0 0.00 0.00 0.00 78 1011.2
20170822155038 81 242 7.0 10.0 0.00 0.00 0.00 79 1011.4
20170822153641 80 248 6.0 10.0 0.00 0.00 0.00 81 1011.9
20170822152043 78 204 7.0 10.0 0.00 0.00 0.00 83 1012.3
20170822150522 77 217 5.0 10.0 0.00 0.00 0.00 86 1012.5
20170822145319 76 161 3.0 7.0 0.00 0.00 0.00 87 1012.6
20170822143515 74 231 2.0 7.0 0.00 0.00 0.00 90 1012.7
20170822142017 73 172 1.0 6.0 0.00 0.00 0.00 91 1013.1
20170822140505 73 208 3.0 6.0 0.00 0.00 0.00 95 1013.3
20170822135101 71 216 3.0 5.0 0.00 0.00 0.00 97 1013.5
20170822133507 70 204 1.0 5.0 0.00 0.00 0.00 98 1013.7
20170822131957 69 239 1.0 4.0 0.00 0.00 0.00 98 1013.7
20170822130457 68 196 2.0 3.0 0.00 0.00 0.00 98 1013.7
20170822124951 68 228 0.0 2.0 0.00 0.00 0.00 98 1014.1
20170822123444 67 204 0.0 2.0 0.00 0.00 0.00 98 1014.5
20170822121948 66 206 1.0 2.0 0.00 0.00 0.00 98 1014.6
20170822120442 65 207 0.0 1.0 0.00 0.00 0.00 98 1014.8
20170822114936 65 315 0.0 0.0 0.00 0.00 0.00 98 1015.0
20170822113448 64 315 0.0 0.0 0.00 0.00 0.00 98 1015.0
20170822111937 63 315 0.0 0.0 0.00 0.00 0.00 98 1015.0
20170822110502 63 315 1.0 2.0 0.00 0.00 0.00 98 1014.8
20170822104931 63 300 0.0 1.0 0.00 0.00 0.00 97 1014.8
20170822103450 63 300 0.0 0.0 0.00 0.00 0.00 97 1014.8
20170822101938 63 300 0.0 0.0 0.00 0.00 0.00 98 1015.0
20170822100457 63 300 0.0 0.0 0.00 0.00 0.00 97 1014.9